Weather History for Kendall, FL

Change the Weather History Date:

Monday, November 5, 2012

  Actual Average Record
Temperature  
Mean Temperature 72 °F -  
Max Temperature 80 °F 81 °F 87 °F (1989)
Min Temperature 64 °F 65 °F 55 °F (2010)
Cooling Degree Days 7    
Growing Degree Days 22 (Base 50)    
Moisture  
Dew Point 62 °F    
Average Humidity 76    
Maximum Humidity 97    
Minimum Humidity 50    
Precipitation  
Precipitation 0.00 in - - ()
Sea Level Pressure  
Sea Level Pressure 29.99 in    
Wind  
Wind Speed 2 mph (NW)    
Max Wind Speed 10 mph    
Max Gust Speed -    
Visibility 10 miles    
Events      
Averages and records for this station are not official NWS values.
T = Trace of Precipitation, MM = Missing Value Source: NWS Daily Summary

Daily Weather History Graph

Daily Weather History Graph

Search for Another Location

Airport:

Trip Planner

Search our weather history database for the weather conditions in past years. The results will help you decide how hot, cold, wet, or windy it might be!

Date:

Astronomy

Nov. 05, 2012 Rise Set
Actual Time 6:32 AM EST 5:37 PM EST
Civil Twilight 6:08 AM EST 6:01 PM EST
Nautical Twilight 5:41 AM EST 6:28 PM EST
Astronomical Twilight 5:14 AM EST 6:55 PM EST
Moon 11:12 PM EST (11/5) 11:50 AM EST (11/5)
Length of Visible Light 11h 52m
Length of Day
11h 04m
Waning Gibbous, 63% of the Moon is Illuminated
Nov 5
Waning Gibbous
Nov 6
Last Quarter
Nov 13
New
Nov 20
First Quarter
Nov 28
Full

Hourly Weather History & Observations

Time (EST) Temp. Heat Index Dew Point Humidity Pressure Visibility Wind Dir Wind Speed Gust Speed Precip Events Conditions
12:53 AM 66.9 °F - 64.0 °F 90% 30.03 in 10.0 mi Calm Calm - N/A   Partly Cloudy
1:53 AM 66.0 °F - 64.0 °F 93% 30.02 in 10.0 mi Calm Calm - N/A   Scattered Clouds
2:53 AM 66.0 °F - 64.0 °F 93% 30.01 in 6.0 mi Calm Calm - N/A   Clear
3:53 AM 66.0 °F - 64.9 °F 96% 29.99 in 7.0 mi Calm Calm - N/A   Clear
4:53 AM 64.0 °F - 63.0 °F 96% 30.00 in 6.0 mi NW 4.6 mph - N/A   Clear
5:53 AM 64.9 °F - 64.0 °F 97% 30.01 in 9.0 mi Calm Calm - N/A   Clear
6:53 AM 66.0 °F - 64.0 °F 93% 30.03 in 10.0 mi Calm Calm - N/A   Clear
7:53 AM 69.1 °F - 66.0 °F 90% 30.02 in 10.0 mi Calm Calm - N/A   Clear
8:53 AM 72.0 °F - 64.0 °F 76% 30.03 in 10.0 mi NNW 4.6 mph - N/A   Mostly Cloudy
9:53 AM 75.0 °F - 60.1 °F 60% 30.03 in 10.0 mi North 4.6 mph - N/A   Clear
10:53 AM 77.0 °F - 63.0 °F 62% 30.02 in 10.0 mi NW 5.8 mph - N/A   Clear
11:53 AM 79.0 °F - 62.1 °F 56% 30.00 in 10.0 mi NW 10.4 mph - N/A   Clear
12:53 PM 80.1 °F 81.1 °F 61.0 °F 52% 29.97 in 10.0 mi WNW 6.9 mph - N/A   Clear
1:53 PM 79.0 °F - 61.0 °F 54% 29.95 in 10.0 mi NW 6.9 mph - N/A   Clear
2:53 PM 79.0 °F - 59.0 °F 50% 29.95 in 10.0 mi NNW 4.6 mph - N/A   Clear
3:53 PM 77.0 °F - 60.1 °F 56% 29.95 in 10.0 mi NNW 6.9 mph - N/A   Mostly Cloudy
4:53 PM 75.0 °F - 61.0 °F 62% 29.95 in 10.0 mi North 3.5 mph - N/A   Clear
5:53 PM 73.9 °F - 59.0 °F 59% 29.95 in 10.0 mi Calm Calm - N/A   Clear
6:53 PM 71.1 °F - 60.1 °F 68% 29.97 in 10.0 mi Calm Calm - N/A   Partly Cloudy
7:53 PM 69.1 °F - 61.0 °F 75% 29.98 in 10.0 mi Calm Calm - N/A   Clear
8:53 PM 68.0 °F - 62.1 °F 81% 29.98 in 10.0 mi Calm Calm - N/A   Scattered Clouds
9:53 PM 70.0 °F - 63.0 °F 78% 29.98 in 10.0 mi Calm Calm - N/A   Overcast
10:53 PM 66.9 °F - 63.0 °F 87% 29.97 in 10.0 mi WNW 3.5 mph - N/A   Clear
11:53 PM 66.0 °F - 63.0 °F 90% 29.95 in 10.0 mi Calm Calm - N/A   Clear